| time (UTC) | temp C | wind direction | speed KPH | gust KPH | rain 1hr cm | rain 24hr cm | rain mn cm | humidity % | barometer mb |
| 20260510020517 | 15 | 329 | 0.0 | 3.2 | 0.00 | 0.15 | 0.15 | 51 | 1002.0 |
| 20260510015533 | 16 | 340 | 0.0 | 1.6 | 0.00 | 0.15 | 0.15 | 50 | 1001.8 |
| 20260510014609 | 16 | 0.0 | 0.0 | 0.00 | 0.15 | 0.15 | 49 | 1001.5 | |
| 20260510013525 | 16 | 340 | 0.0 | 3.2 | 0.00 | 0.15 | 0.15 | 49 | 1001.2 |
| 20260510012521 | 16 | 333 | 0.0 | 3.2 | 0.00 | 0.15 | 0.15 | 48 | 1001.0 |
| 20260510011516 | 17 | 327 | 1.6 | 6.4 | 0.00 | 0.15 | 0.15 | 46 | 1000.9 |
| 20260510010532 | 17 | 327 | 3.2 | 6.4 | 0.00 | 0.15 | 0.15 | 46 | 1000.7 |
| 20260510005528 | 17 | 337 | 3.2 | 9.7 | 0.00 | 0.15 | 0.15 | 45 | 1000.6 |
| 20260510004524 | 17 | 329 | 3.2 | 6.4 | 0.00 | 0.15 | 0.15 | 44 | 1000.2 |
| 20260510003520 | 18 | 325 | 4.8 | 16.1 | 0.00 | 0.15 | 0.15 | 43 | 1000.3 |
| 20260510002536 | 18 | 318 | 8.0 | 17.7 | 0.00 | 0.15 | 0.15 | 41 | 1000.1 |
| 20260510001532 | 18 | 309 | 8.0 | 16.1 | 0.00 | 0.15 | 0.15 | 40 | 1000.0 |
| 20260510000527 | 18 | 297 | 11.3 | 27.4 | 0.00 | 0.15 | 0.15 | 39 | 999.9 |
| 20260509235523 | 19 | 291 | 12.9 | 27.4 | 0.00 | 0.15 | 0.15 | 38 | 999.9 |
| 20260509234519 | 19 | 300 | 11.3 | 25.7 | 0.00 | 0.15 | 0.15 | 37 | 999.8 |
| 20260509233536 | 19 | 296 | 14.5 | 29.0 | 0.00 | 0.15 | 0.15 | 36 | 999.7 |
| 20260509232531 | 20 | 299 | 17.7 | 40.2 | 0.00 | 0.15 | 0.15 | 36 | 999.5 |
| 20260509231527 | 20 | 294 | 12.9 | 27.4 | 0.00 | 0.15 | 0.15 | 36 | 999.4 |
| 20260509230523 | 20 | 289 | 19.3 | 40.2 | 0.00 | 0.15 | 0.15 | 35 | 999.2 |
| 20260509225519 | 20 | 281 | 14.5 | 33.8 | 0.00 | 0.15 | 0.15 | 36 | 999.0 |
| 20260509224515 | 20 | 296 | 19.3 | 40.2 | 0.00 | 0.15 | 0.15 | 38 | 998.7 |
| 20260509223531 | 20 | 279 | 14.5 | 25.7 | 0.00 | 0.15 | 0.15 | 37 | 998.6 |
| 20260509222527 | 20 | 278 | 12.9 | 33.8 | 0.00 | 0.15 | 0.15 | 38 | 998.4 |
| 20260509221523 | 20 | 277 | 20.9 | 35.4 | 0.00 | 0.15 | 0.15 | 37 | 998.4 |
| 20260509220519 | 20 | 274 | 20.9 | 37.0 | 0.00 | 0.15 | 0.15 | 37 | 998.1 |
| 20260509215536 | 20 | 299 | 19.3 | 38.6 | 0.00 | 0.15 | 0.15 | 36 | 997.9 |
| 20260509214530 | 20 | 287 | 19.3 | 37.0 | 0.00 | 0.15 | 0.15 | 38 | 997.7 |
| 20260509213526 | 20 | 289 | 14.5 | 29.0 | 0.00 | 0.15 | 0.15 | 40 | 997.6 |
| 20260509212521 | 20 | 284 | 17.7 | 27.4 | 0.00 | 0.15 | 0.15 | 40 | 997.7 |
| 20260509211518 | 20 | 292 | 12.9 | 24.1 | 0.00 | 0.15 | 0.15 | 47 | 997.8 |
| 20260509210554 | 20 | 296 | 12.9 | 33.8 | 0.00 | 0.15 | 0.15 | 53 | 997.8 |
| 20260509205550 | 19 | 296 | 12.9 | 29.0 | 0.00 | 0.15 | 0.15 | 53 | 998.1 |
| 20260509204526 | 18 | 302 | 8.0 | 17.7 | 0.00 | 0.15 | 0.15 | 60 | 998.1 |
| 20260509203522 | 18 | 299 | 6.4 | 16.1 | 0.00 | 0.15 | 0.15 | 64 | 998.4 |
| 20260509202518 | 17 | 300 | 6.4 | 12.9 | 0.05 | 0.15 | 0.15 | 70 | 998.5 |
| 20260509201534 | 16 | 311 | 4.8 | 9.7 | 0.13 | 0.15 | 0.15 | 72 | 998.5 |
| 20260509200530 | 16 | 298 | 6.4 | 12.9 | 0.13 | 0.15 | 0.15 | 74 | 998.6 |
| 20260509195526 | 15 | 294 | 6.4 | 12.9 | 0.15 | 0.15 | 0.15 | 74 | 998.8 |
| 20260509194522 | 14 | 305 | 4.8 | 6.4 | 0.15 | 0.15 | 0.15 | 74 | 998.6 |
| 20260509193518 | 13 | 296 | 6.4 | 17.7 | 0.13 | 0.13 | 0.13 | 71 | 999.1 |
| 20260509192534 | 15 | 311 | 9.7 | 20.9 | 0.10 | 0.10 | 0.10 | 64 | 999.3 |
| 20260509191530 | 18 | 310 | 19.3 | 33.8 | 0.03 | 0.03 | 0.03 | 56 | 998.6 |
| 20260509190526 | 18 | 260 | 12.9 | 27.4 | 0.00 | 0.00 | 0.00 | 60 | 997.9 |
| 20260509185522 | 18 | 289 | 6.4 | 17.7 | 0.00 | 0.00 | 0.00 | 59 | 997.7 |
| 20260509184518 | 18 | 265 | 6.4 | 14.5 | 0.00 | 0.00 | 0.00 | 62 | 997.9 |
| 20260509183534 | 18 | 265 | 9.7 | 22.5 | 0.00 | 0.00 | 0.00 | 62 | 997.9 |
| 20260509182530 | 18 | 243 | 8.0 | 22.5 | 0.00 | 0.00 | 0.00 | 63 | 997.7 |
| 20260509181526 | 18 | 177 | 11.3 | 22.5 | 0.00 | 0.00 | 0.00 | 62 | 997.8 |
| 20260509180543 | 18 | 175 | 12.9 | 33.8 | 0.00 | 0.00 | 0.00 | 62 | 998.1 |
| 20260509175518 | 18 | 195 | 11.3 | 33.8 | 0.00 | 0.00 | 0.00 | 63 | 998.1 |
| 20260509174534 | 18 | 214 | 11.3 | 22.5 | 0.00 | 0.00 | 0.00 | 63 | 998.0 |
| 20260509173530 | 18 | 143 | 11.3 | 24.1 | 0.00 | 0.00 | 0.00 | 64 | 998.2 |
| 20260509172526 | 18 | 169 | 12.9 | 29.0 | 0.00 | 0.00 | 0.00 | 65 | 998.4 |
| 20260509171522 | 17 | 153 | 12.9 | 29.0 | 0.00 | 0.00 | 0.00 | 68 | 998.4 |
| 20260509170518 | 17 | 140 | 9.7 | 24.1 | 0.00 | 0.00 | 0.00 | 68 | 998.5 |
| 20260509165534 | 17 | 158 | 9.7 | 22.5 | 0.00 | 0.00 | 0.00 | 67 | 998.6 |
| 20260509164610 | 17 | 157 | 11.3 | 24.1 | 0.00 | 0.00 | 0.00 | 66 | 998.7 |
| 20260509163526 | 17 | 122 | 9.7 | 27.4 | 0.00 | 0.00 | 0.00 | 64 | 998.7 |
| 20260509162522 | 18 | 155 | 14.5 | 29.0 | 0.00 | 0.00 | 0.00 | 66 | 998.7 |
| 20260509161518 | 17 | 146 | 12.9 | 27.4 | 0.00 | 0.00 | 0.00 | 67 | 998.8 |
| 20260509160534 | 17 | 132 | 14.5 | 33.8 | 0.00 | 0.00 | 0.00 | 67 | 999.2 |
| 20260509155531 | 18 | 177 | 11.3 | 24.1 | 0.00 | 0.00 | 0.00 | 65 | 999.3 |
| 20260509154526 | 18 | 184 | 11.3 | 27.4 | 0.00 | 0.00 | 0.00 | 67 | 999.3 |
| 20260509153522 | 17 | 128 | 9.7 | 17.7 | 0.00 | 0.00 | 0.00 | 68 | 999.3 |
| 20260509152518 | 17 | 156 | 8.0 | 17.7 | 0.00 | 0.00 | 0.00 | 71 | 999.4 |
| 20260509151535 | 16 | 126 | 9.7 | 17.7 | 0.00 | 0.00 | 0.00 | 71 | 999.6 |
| 20260509150531 | 16 | 131 | 11.3 | 20.9 | 0.00 | 0.00 | 0.00 | 70 | 999.5 |
| 20260509145526 | 16 | 164 | 8.0 | 16.1 | 0.00 | 0.00 | 0.00 | 71 | 1000.0 |
| 20260509144542 | 16 | 119 | 11.3 | 22.5 | 0.00 | 0.00 | 0.00 | 72 | 999.7 |
| 20260509143518 | 16 | 231 | 8.0 | 20.9 | 0.00 | 0.00 | 0.00 | 74 | 1000.2 |
| 20260509142535 | 16 | 238 | 8.0 | 16.1 | 0.00 | 0.00 | 0.00 | 75 | 1000.0 |
| 20260509141531 | 15 | 120 | 9.7 | 22.5 | 0.00 | 0.00 | 0.00 | 76 | 1000.3 |
| 20260509140527 | 15 | 96 | 8.0 | 17.7 | 0.00 | 0.00 | 0.00 | 77 | 1000.5 |
| 20260509135523 | 15 | 0 | 4.8 | 14.5 | 0.00 | 0.00 | 0.00 | 78 | 1000.6 |
| 20260509134518 | 15 | 29 | 6.4 | 16.1 | 0.00 | 0.00 | 0.00 | 81 | 1000.6 |
| 20260509133534 | 14 | 50 | 6.4 | 16.1 | 0.00 | 0.00 | 0.00 | 81 | 1000.7 |
| 20260509132530 | 13 | 283 | 8.0 | 14.5 | 0.00 | 0.00 | 0.00 | 82 | 1000.9 |
| 20260509131526 | 13 | 354 | 6.4 | 12.9 | 0.00 | 0.00 | 0.00 | 83 | 1000.8 |
| 20260509130543 | 12 | 285 | 8.0 | 16.1 | 0.00 | 0.00 | 0.00 | 83 | 1000.8 |
| 20260509125519 | 12 | 317 | 4.8 | 11.3 | 0.00 | 0.00 | 0.00 | 83 | 1000.6 |
| 20260509124535 | 12 | 290 | 3.2 | 6.4 | 0.00 | 0.00 | 0.00 | 83 | 1000.7 |
| 20260509123551 | 12 | 215 | 8.0 | 17.7 | 0.00 | 0.00 | 0.00 | 84 | 1000.7 |
| 20260509122527 | 12 | 278 | 4.8 | 12.9 | 0.00 | 0.00 | 0.00 | 84 | 1000.8 |
| 20260509121523 | 11 | 283 | 6.4 | 14.5 | 0.00 | 0.00 | 0.00 | 84 | 1001.1 |
| 20260509120519 | 11 | 325 | 4.8 | 11.3 | 0.00 | 0.00 | 0.00 | 84 | 1001.2 |
| 20260509115534 | 11 | 300 | 4.8 | 11.3 | 0.00 | 0.00 | 0.00 | 84 | 1001.5 |
| 20260509114531 | 11 | 273 | 6.4 | 16.1 | 0.00 | 0.00 | 0.00 | 83 | 1001.4 |
| 20260509113527 | 11 | 259 | 4.8 | 14.5 | 0.00 | 0.00 | 0.00 | 83 | 1001.2 |
| 20260509112523 | 10 | 337 | 1.6 | 4.8 | 0.00 | 0.00 | 0.00 | 83 | 1001.3 |
| 20260509111518 | 10 | 312 | 3.2 | 6.4 | 0.00 | 0.00 | 0.00 | 83 | 1001.4 |
| 20260509110534 | 10 | 332 | 3.2 | 6.4 | 0.00 | 0.00 | 0.00 | 82 | 1001.3 |
| 20260509105530 | 10 | 327 | 1.6 | 4.8 | 0.00 | 0.00 | 0.00 | 82 | 1001.2 |
| 20260509104526 | 10 | 330 | 1.6 | 3.2 | 0.00 | 0.00 | 0.00 | 82 | 1001.2 |
| 20260509103522 | 10 | 339 | 1.6 | 3.2 | 0.00 | 0.00 | 0.00 | 82 | 1001.1 |
| 20260509102518 | 10 | 355 | 0.0 | 1.6 | 0.00 | 0.00 | 0.00 | 81 | 1001.0 |
| 20260509101534 | 10 | 346 | 0.0 | 6.4 | 0.00 | 0.00 | 0.00 | 81 | 1001.1 |
| 20260509100530 | 10 | 344 | 1.6 | 3.2 | 0.00 | 0.00 | 0.00 | 81 | 1001.1 |
| 20260509095526 | 10 | 323 | 1.6 | 4.8 | 0.00 | 0.00 | 0.00 | 80 | 1001.2 |
| 20260509094522 | 10 | 332 | 1.6 | 4.8 | 0.00 | 0.00 | 0.00 | 80 | 1001.1 |
| 20260509093518 | 10 | 327 | 1.6 | 4.8 | 0.00 | 0.00 | 0.00 | 80 | 1001.2 |
| 20260509092534 | 10 | 326 | 3.2 | 11.3 | 0.00 | 0.00 | 0.00 | 80 | 1001.1 |
| 20260509091531 | 10 | 334 | 1.6 | 3.2 | 0.00 | 0.00 | 0.00 | 79 | 1001.2 |
| 20260509090527 | 10 | 355 | 1.6 | 4.8 | 0.00 | 0.00 | 0.00 | 79 | 1001.3 |
| 20260509085522 | 10 | 328 | 3.2 | 6.4 | 0.00 | 0.00 | 0.00 | 79 | 1001.4 |
| 20260509084518 | 10 | 337 | 1.6 | 4.8 | 0.00 | 0.00 | 0.00 | 79 | 1001.6 |
| 20260509083554 | 10 | 329 | 1.6 | 4.8 | 0.00 | 0.00 | 0.00 | 79 | 1001.6 |
| 20260509082530 | 10 | 330 | 0.0 | 3.2 | 0.00 | 0.00 | 0.00 | 79 | 1001.6 |
| 20260509081526 | 10 | 333 | 1.6 | 4.8 | 0.00 | 0.00 | 0.00 | 79 | 1001.5 |
| 20260509080541 | 10 | 340 | 1.6 | 4.8 | 0.00 | 0.00 | 0.00 | 79 | 1001.4 |
| 20260509075538 | 10 | 337 | 1.6 | 4.8 | 0.00 | 0.00 | 0.00 | 79 | 1001.5 |
| 20260509074534 | 10 | 12 | 4.8 | 9.7 | 0.00 | 0.00 | 0.00 | 79 | 1001.7 |
| 20260509073530 | 10 | 312 | 3.2 | 6.4 | 0.00 | 0.00 | 0.00 | 79 | 1001.6 |
| 20260509072525 | 10 | 316 | 3.2 | 6.4 | 0.00 | 0.00 | 0.00 | 79 | 1001.6 |
| 20260509071521 | 10 | 319 | 1.6 | 4.8 | 0.00 | 0.00 | 0.00 | 79 | 1001.6 |
| 20260509070618 | 10 | 316 | 1.6 | 4.8 | 0.00 | 0.00 | 0.00 | 79 | 1001.8 |
| 20260509065534 | 10 | 290 | 3.2 | 9.7 | 0.00 | 0.00 | 0.00 | 79 | 1001.9 |
| 20260509064530 | 10 | 273 | 1.6 | 4.8 | 0.00 | 0.00 | 0.00 | 78 | 1002.0 |
| 20260509063525 | 10 | 238 | 1.6 | 4.8 | 0.00 | 0.00 | 0.00 | 78 | 1002.1 |
| 20260509062601 | 10 | 210 | 0.0 | 3.2 | 0.00 | 0.00 | 0.00 | 77 | 1002.1 |
| 20260509061517 | 11 | 194 | 1.6 | 4.8 | 0.00 | 0.00 | 0.00 | 77 | 1002.3 |
| 20260509060533 | 11 | 194 | 0.0 | 3.2 | 0.00 | 0.00 | 0.00 | 77 | 1002.5 |
| 20260509055710 | 11 | 194 | 0.0 | 3.2 | 0.00 | 0.00 | 0.00 | 76 | 1002.6 |
| 20260509054525 | 11 | 193 | 1.6 | 3.2 | 0.00 | 0.00 | 0.00 | 76 | 1002.7 |
| 20260509053521 | 11 | 222 | 1.6 | 3.2 | 0.00 | 0.00 | 0.00 | 76 | 1002.7 |
| 20260509052517 | 11 | 238 | 1.6 | 3.2 | 0.00 | 0.00 | 0.00 | 76 | 1002.7 |
| 20260509051533 | 12 | 240 | 3.2 | 6.4 | 0.00 | 0.00 | 0.00 | 76 | 1002.7 |
| 20260509050529 | 12 | 233 | 3.2 | 6.4 | 0.00 | 0.00 | 0.00 | 75 | 1002.9 |
| 20260509045525 | 12 | 242 | 4.8 | 11.3 | 0.00 | 0.00 | 0.00 | 75 | 1003.0 |
| 20260509044521 | 12 | 248 | 4.8 | 9.7 | 0.00 | 0.00 | 0.00 | 75 | 1003.0 |
| 20260509043517 | 12 | 246 | 4.8 | 9.7 | 0.00 | 0.00 | 0.00 | 75 | 1003.0 |
| 20260509042533 | 12 | 245 | 4.8 | 11.3 | 0.00 | 0.00 | 0.00 | 74 | 1003.0 |
| 20260509041529 | 12 | 243 | 3.2 | 9.7 | 0.00 | 0.00 | 0.00 | 74 | 1003.2 |
| 20260509040545 | 12 | 250 | 4.8 | 11.3 | 0.00 | 0.00 | 0.00 | 74 | 1003.2 |
| 20260509035521 | 12 | 254 | 4.8 | 9.7 | 0.00 | 0.00 | 0.00 | 74 | 1003.1 |
| 20260509034537 | 12 | 252 | 4.8 | 9.7 | 0.00 | 0.00 | 0.00 | 74 | 1003.1 |
| 20260509033533 | 12 | 245 | 3.2 | 9.7 | 0.00 | 0.00 | 0.00 | 74 | 1003.2 |
| 20260509032529 | 12 | 222 | 4.8 | 12.9 | 0.00 | 0.00 | 0.00 | 74 | 1003.3 |
| 20260509031525 | 12 | 231 | 4.8 | 11.3 | 0.00 | 0.00 | 0.00 | 74 | 1003.5 |
| 20260509030521 | 12 | 232 | 6.4 | 11.3 | 0.00 | 0.00 | 0.00 | 75 | 1003.5 |
| 20260509025537 | 12 | 227 | 6.4 | 12.9 | 0.00 | 0.00 | 0.00 | 76 | 1003.5 |
| 20260509024533 | 12 | 215 | 6.4 | 16.1 | 0.00 | 0.00 | 0.00 | 77 | 1003.6 |
| 20260509023528 | 12 | 174 | 6.4 | 20.9 | 0.00 | 0.00 | 0.00 | 77 | 1003.5 |
| 20260509022524 | 12 | 186 | 4.8 | 12.9 | 0.00 | 0.00 | 0.00 | 77 | 1003.4 |
| 20260509021539 | 11 | 164 | 3.2 | 6.4 | 0.00 | 0.00 | 0.00 | 76 | 1003.5 |